Satellite: NCUBE2 Catalog number: 28897 Epoch time: 07339.69790060 Element set: 0420 Inclination: 098.1147 deg RA of node: 232.9699 deg Eccentricity: 0.0016639 Arg of perigee: 301.1515 deg Mean anomaly: 058.8052 deg Mean motion: 14.59778142 rev/day Decay rate: 1.63e-06 rev/day^2 Epoch rev: 10439 Checksum: 324
Satellite: CO-58 Catalog number: 28895 Epoch time: 07340.73920853 Element set: 891 Inclination: 098.1158 deg RA of node: 234.0454 deg Eccentricity: 0.0017067 Arg of perigee: 296.1732 deg Mean anomaly: 063.7736 deg Mean motion: 14.59611711 rev/day Decay rate: 1.16e-06 rev/day^2 Epoch rev: 11226 Checksum: 317
Satellite: UWE-1 Catalog number: 28892 Epoch time: 07339.60035894 Element set: 0915 Inclination: 098.1129 deg RA of node: 232.6519 deg Eccentricity: 0.0016577 Arg of perigee: 299.4597 deg Mean anomaly: 060.4950 deg Mean motion: 14.59568474 rev/day Decay rate: 1.05e-06 rev/day^2 Epoch rev: 11221 Checksum: 331
Satellite: OO-38 Catalog number: 26063 Epoch time: 07340.15164704 Element set: 77 Inclination: 100.2194 deg RA of node: 014.4917 deg Eccentricity: 0.0037196 Arg of perigee: 036.2785 deg Mean anomaly: 324.0907 deg Mean motion: 14.35821533 rev/day Decay rate: -3.2e-07 rev/day^2 Epoch rev: 41172 Checksum: 276
Satellite: ISS Catalog number: 25544 Epoch time: 07340.89565253 Element set: 471 Inclination: 051.6398 deg RA of node: 293.4372 deg Eccentricity: 0.0000572 Arg of perigee: 296.0454 deg Mean anomaly: 113.9889 deg Mean motion: 15.77092424 rev/day Decay rate: 1.7011e-04 rev/day^2 Epoch rev: 51802 Checksum: 308
Satellite: ISS Catalog number: 25544 Epoch time: 07340.89565253 Element set: 471 Inclination: 051.6398 deg RA of node: 293.4372 deg Eccentricity: 0.0000572 Arg of perigee: 296.0454 deg Mean anomaly: 113.9889 deg Mean motion: 15.77092424 rev/day Decay rate: 1.7011e-04 rev/day^2 Epoch rev: 51802 Checksum: 308
Satellite: ISS Catalog number: 25544 Epoch time: 07340.89565253 Element set: 471 Inclination: 051.6398 deg RA of node: 293.4372 deg Eccentricity: 0.0000572 Arg of perigee: 296.0454 deg Mean anomaly: 113.9889 deg Mean motion: 15.77092424 rev/day Decay rate: 1.7011e-04 rev/day^2 Epoch rev: 51802 Checksum: 308
Satellite: ISS Catalog number: 25544 Epoch time: 07340.89565253 Element set: 471 Inclination: 051.6398 deg RA of node: 293.4372 deg Eccentricity: 0.0000572 Arg of perigee: 296.0454 deg Mean anomaly: 113.9889 deg Mean motion: 15.77092424 rev/day Decay rate: 1.7011e-04 rev/day^2 Epoch rev: 51802 Checksum: 308
Satellite: ISS Catalog number: 25544 Epoch time: 07340.89565253 Element set: 471 Inclination: 051.6398 deg RA of node: 293.4372 deg Eccentricity: 0.0000572 Arg of perigee: 296.0454 deg Mean anomaly: 113.9889 deg Mean motion: 15.77092424 rev/day Decay rate: 1.7011e-04 rev/day^2 Epoch rev: 51802 Checksum: 308
Satellite: ISS Catalog number: 25544 Epoch time: 07340.89565253 Element set: 471 Inclination: 051.6398 deg RA of node: 293.4372 deg Eccentricity: 0.0000572 Arg of perigee: 296.0454 deg Mean anomaly: 113.9889 deg Mean motion: 15.77092424 rev/day Decay rate: 1.7011e-04 rev/day^2 Epoch rev: 51802 Checksum: 308
Satellite: PO-34 Catalog number: 25520 Epoch time: 07339.54832755 Element set: 881 Inclination: 028.4602 deg RA of node: 041.7704 deg Eccentricity: 0.0005097 Arg of perigee: 320.2522 deg Mean anomaly: 039.7700 deg Mean motion: 15.17092016 rev/day Decay rate: 3.31e-06 rev/day^2 Epoch rev: 50357 Checksum: 276
Satellite: UARS Catalog number: 21701 Epoch time: 07340.85359773 Element set: 234 Inclination: 056.9744 deg RA of node: 283.7752 deg Eccentricity: 0.0091333 Arg of perigee: 162.4577 deg Mean anomaly: 197.9689 deg Mean motion: 15.49797192 rev/day Decay rate: 2.568e-05 rev/day^2 Epoch rev: 89250 Checksum: 357
Satellite: HUBBLE Catalog number: 20580 Epoch time: 07340.70304628 Element set: 21 Inclination: 028.4671 deg RA of node: 145.1101 deg Eccentricity: 0.0003995 Arg of perigee: 130.7786 deg Mean anomaly: 229.3149 deg Mean motion: 15.00310380 rev/day Decay rate: 2.85e-06 rev/day^2 Epoch rev: 76589 Checksum: 271
/EX
participants (1)
-
Ray Hoad